Regional Weather Roundup
Issued by NWS San Angelo, TX

Home | Current Version | Previous Version | Text Only | Print | Product List | Glossary On
Versions: 1 2 3 4 5 6 7 8 9 10 11 12 13 14 15 16 17 18 19 20 21 22 23 24 25 26 27 28 29 30 31 32 33 34 35 36 37 38 39 40 41 42 43 44 45 46 47 48 49 50
000
ASUS44 KSJT 312210
RWRSJT
WEST CENTRAL TEXAS REGIONAL WEATHER ROUNDUP
NATIONAL WEATHER SERVICE SAN ANGELO TX
400 PM CST SAT JAN 31 2015

NOTE: "FAIR" INDICATES FEW OR NO CLOUDS BELOW 12,000 FEET WITH NO
SIGNIFICANT WEATHER AND/OR OBSTRUCTIONS TO VISIBILITY.

TXZ049-054-064>066-071>073-076>078-098-099-113-114-127-128-139-140-
154-155-168>170-312300
...LOCATIONS ACROSS WEST CENTRAL TEXAS...

CITY           SKY/WX    TMP DP  RH WIND       PRES   REMARKS
SAN ANGELO     CLOUDY    58  53  84 S17G28    29.84F
ABILENE        CLOUDY    51  49  92 S16       29.89F
DYESS AFB      CLOUDY    52  52 100 SE13      29.88F
JUNCTION       CLOUDY    58  54  86 S9        29.90F
SWEETWATER     CLOUDY    49  49 100 S10       29.91F
BROWNWOOD      LGT RAIN  50  50 100 SE12      29.95F
COLEMAN        CLOUDY    52  52 100 S12       29.93S
SONORA         CLOUDY    57  55  94 S15       29.94F
OZONA          CLOUDY    52  52 100 S10G20    29.92S FOG
BRADY          NOT AVBL
$$

TEXAS PANHANDLE/OKLAHOMA PANHANDLE

CITY           SKY/WX    TMP DP  RH WIND       PRES   REMARKS
AMARILLO       CLOUDY    39  38  96 S14       29.85F WCI  31
BORGER         CLOUDY    42  36  79 SW10      29.84F WCI  36
CANADIAN       CLOUDY    43  41  92 S10       29.87F WCI  37
DALHART        CLOUDY    43  36  76 SW14      29.81F WCI  36
DUMAS          CLOUDY    40  36  87 SW15      29.82F WCI  32
GUYMON         NOT AVBL
HEREFORD       CLOUDY    42  40  95 SW10      29.85F WCI  36
PAMPA          CLOUDY    39  37  93 S12       29.85F WCI  32
PERRYTON       CLOUDY    42  38  87 SW15      29.84F WCI  34
$$

SOUTHERN PANHANDLE/SOUTH PLAINS/ROLLING PLAINS

CITY           SKY/WX    TMP DP  RH WIND       PRES   REMARKS
LUBBOCK        DRIZZLE   42  42 100 S8        29.86F FOG     WCI  37
SNYDER         CLOUDY   N/A N/A N/A S7        29.89F FOG
CHILDRESS      CLOUDY    42  41  96 SE7       29.91F FOG     WCI  38
SEMINOLE       FOG       46  46 100 CALM      29.87F VSB 1/4
$$

PERMIAN BASIN

CITY           SKY/WX    TMP DP  RH WIND       PRES   REMARKS
MIDLAND        CLOUDY    52  50  93 S10       29.86F
ODESSA         CLOUDY    51  48  89 S12       29.86F
WINK           CLOUDY    54  46  74 SE3       29.84S
$$

FAR WEST/SOUTHWEST MOUNTAINS/TRANS PECOS

CITY           SKY/WX    TMP DP  RH WIND       PRES   REMARKS
ALPINE         PTCLDY    62  41  46 S18G24    29.91S
DRYDEN           N/A     53  52  96 NE5       29.88S
EL PASO        PTSUNNY   58  44  60 W12       29.84S
FORT STOCKTON  MOSUNNY   63  52  67 W6        29.82S
GUADALUPE PASS LGT RAIN  45  44  97 SW20      29.88S WCI  37
MARFA          MOSUNNY   63  39  42 SW17G23   29.89S
PECOS          CLOUDY    51  47  84 NE5       29.85S
$$

DALLAS/FORT WORTH METROPLEX

CITY           SKY/WX    TMP DP  RH WIND       PRES   REMARKS
DFW AIRPORT    RAIN      48  45  89 SE5       30.01S FOG
FTW MEACHAM    LGT RAIN  49  46  90 SE8       30.00S FOG
DAL-EXECUTIVE  RAIN      51  46  83 SE6       29.99F
GRAND PRAIRIE  CLOUDY    48  48 100 E3        30.02F
ADDISON        LGT RAIN  50  43  76 SE7       30.02S
MESQUITE       CLOUDY    55  41  58 E8        30.01F
LANCASTER      CLOUDY    53  43  68 S7        30.03R
$$

NORTH CENTRAL TEXAS

CITY           SKY/WX    TMP DP  RH WIND       PRES   REMARKS
SHRMAN/DENISON LGT RAIN  51  41  70 SE12      30.01F
GAINESVILLE    RAIN      46  43  92 S8        30.04R
BRIDGEPORT     RAIN      47  45  95 SE8       30.01F
DENTON         LGT RAIN  47  45  93 SE7       30.00F FOG
WAXAHACHIE     LGT RAIN  50  46  85 SE5       30.02S
GRANBURY       DRIZZLE   48  46  90 SE8       30.01F
$$

WESTERN NORTH TEXAS

CITY           SKY/WX    TMP DP  RH WIND       PRES   REMARKS
WICHITA FALLS  LGT RAIN  44  42  93 SE13      29.95F FOG     WCI  38
VERNON         CLOUDY    45  40  84 SE6       29.95F
BRECKENRIDGE   LGT RAIN  49  49  97 SE14      29.93F
COMANCHE       RAIN      49  49 100 SE8       29.95F
$$

CENTRAL AND SOUTH CENTRAL TEXAS

CITY           SKY/WX    TMP DP  RH WIND       PRES   REMARKS
AUSTIN/BERGSTM LGT RAIN  57  57 100 N3        29.97F FOG
WACO           LGT RAIN  55  51  86 SE3       30.00F
HILLSBORO      RAIN      53  47  83 SE5       30.00F
TEMPLE         CLOUDY    55  48  76 S5        29.99S
KILLEEN-GRAY   NOT AVBL
FORT HOOD      LGT RAIN  51  50  96 E5        29.97F FOG
GEORGETOWN     CLOUDY    55  54  94 CALM      29.98F
LAGO VISTA     FOG       54  52  94 E5        29.97F VSB 1/4
SAN MARCOS     CLOUDY    59  55  88 E5        29.97F FOG
NEW BRAUNFELS  CLOUDY    60  57  89 E6        29.94F FOG
RANDOLPH AFB   DRIZZLE   59  59 100 NE6       29.95S FOG
SAN ANTONIO    LGT RAIN  59  57  93 CALM      29.95S FOG
STINSON        LGT RAIN  61  59  93 NE3       29.93F FOG
PLEASANTON     NOT AVBL
LA GRANGE      LGT RAIN  66  62  86 S6        29.96S
GIDDINGS       LGT RAIN  62  56  82 SE5       30.01F
$$

EAST TEXAS

CITY           SKY/WX    TMP DP  RH WIND       PRES   REMARKS
PARIS          CLOUDY    54  34  47 SE13      30.07R
CLARKSVILLE    NOT AVBL
TYLER          CLOUDY    57  39  51 SE10      30.04F
LONGVIEW       PTSUNNY   58  35  42 E8        30.07F
PALESTINE      CLOUDY    58  45  63 SE8       30.05F
NACOGDOCHES    PTSUNNY   57  43  58 SE12G17   30.08F
$$

TEXAS HILL COUNTRY AND EDWARDS PLATEAU

CITY           SKY/WX    TMP DP  RH WIND       PRES   REMARKS
LLANO          FOG       50  50 100 SE5       29.99F VSB 1
HORSESHOE BAY  DRIZZLE  N/A N/A N/A E3        29.97F
KERRVILLE      RAIN      56  55  95 SE6       29.95S
FREDERICKSBRG  DRIZZLE   54  53  97 S5        29.95S
ROCKSPRINGS    NOT AVBL
HONDO          LGT RAIN  58  58 100 E6        29.96F FOG
UVALDE         RAIN      59  58  98 SE3       29.94F
DEL RIO        CLOUDY    55  54  96 SE7       29.89F
$$

SOUTHEAST TEXAS

CITY           SKY/WX    TMP DP  RH WIND       PRES   REMARKS
COLLEGE STN    CLOUDY    63  52  67 SE14      30.00F
CALDWELL       CLOUDY    63  55  77 SE10      30.02F
CROCKETT       MOCLDY    63  52  67 SE7       30.08F
BRENHAM        CLOUDY    64  55  72 SE15      30.00F
HUNTSVILLE     CLOUDY    62  50  64 SE8       30.03F
CONROE         CLOUDY    60  50  69 E14       30.04F
HOUSTON BUSH   CLOUDY    61  54  77 E16       30.05F
HOUSTON HOBBY  CLOUDY    60  55  83 E13G18    30.05F
PERLAND        CLOUDY    61  56  83 E12       30.06F
WHARTON        CLOUDY    67  61  78 SE17      30.00F
$$

THE UPPER TEXAS COAST

CITY           SKY/WX    TMP DP  RH WIND       PRES   REMARKS
ORANGE         CLOUDY    63  52  66 E10       30.11F
PORT ARTHUR    MOSUNNY   63  52  67 SE17      30.09F
GALVESTON      CLOUDY    60  57  89 E15       30.05F FOG
ANGLETON       CLOUDY    64  60  87 E13       30.02F
BAY CITY       CLOUDY    69  63  83 SE14      30.01F
$$

TEXAS COASTAL BEND, RIO GRANDE PLAINS DEEP SOUTH TEXAS

CITY           SKY/WX    TMP DP  RH WIND       PRES   REMARKS
VICTORIA       CLOUDY    68  62  81 SE17      29.98S
BEEVILLE       MOCLDY    72  60  66 S22G28    29.94F
ROCKPORT       CLOUDY    69  62  78 SE10      29.97S
PORT ARANSAS   DRIZZLE   65  63  93 SE9       29.96F
PORT LAVACA    CLOUDY    65  62  89 SE14      29.98F
CORPUS CHRISTI PTSUNNY   72  63  73 SE24      29.96F
KINGSVILLE NAS PTSUNNY   73  62  68 SE20G30   29.94F
COTULLA        LGT RAIN  66  62  87 SE7       29.92F
LAREDO         CLOUDY    69  59  70 S14       29.93F
BROWNSVILLE    PTSUNNY   72  63  73 SE23      29.94F
PORT ISABEL    PTSUNNY   72  62  71 S18       29.94F
HEBBRONVILLE   CLOUDY    68  59  73 SE6       29.94F
MCALLEN        MOSUNNY   75  59  57 SE18G32   29.92F
WESLACO        MOSUNNY   74  59  60 S22G28    29.93S
FALFURRIAS     CLOUDY    74  56  53 S13       29.93S
EDINBURG       PTCLDY    76  59  55 SE13G22   29.94R
$$


USA.gov is the U.S. government's official web portal to all federal, state and local government web resources and services.